Regional Weather Roundup
Issued by NWS Nashville, TN

Home | Current Version | Previous Version | Text Only | Print | Product List | Glossary On
Versions: 1 2 3 4 5 6 7 8 9 10 11 12 13 14 15 16 17 18 19 20 21 22 23 24 25 26 27 28 29 30 31 32 33 34 35 36 37 38 39 40 41 42 43 44 45 46 47 48 49 50
000
ASUS44 KOHX 050515
RWROHX
MIDDLE TENNESSEE HOURLY WEATHER ROUNDUP
NATIONAL WEATHER SERVICE NASHVILLE TN
1200 AM CDT TUE MAY 05 2015

NOTE: "FAIR" INDICATES FEW OR NO CLOUDS BELOW 12,000 FEET WITH
NO SIGNIFICANT WEATHER AND/OR OBSTRUCTIONS TO VISIBILITY.

* THESE REPORTS ARE NOT UNDER NWS QUALITY CONTROL AND MAY NOT
  REPORT WEATHER SUCH AS PRECIPITATION AND FOG.


TNZ005>011-023>034-057-059-062>066-078-080-050600
...NORTHERN MIDDLE TENNESSEE...

CITY           SKY/WX    TMP DP  RH WIND       PRES   REMARKS
CLARKSVILLE    CLEAR     63  54  72 CALM      30.21R
CROSSVILLE     CLEAR     59  49  69 CALM      30.31R
NASHVILLE      CLEAR     64  55  72 S3        30.23S
PORTLAND       CLEAR     61  54  77 S5        30.23R
SMYRNA         CLEAR     60  56  87 CALM      30.24S
SPARTA         CLEAR     54  52  94 CALM      30.26S
$$
TNZ056-058-060-061-075>077-079-093>097-050600
...SOUTHERN MIDDLE TENNESSEE...

CITY           SKY/WX    TMP DP  RH WIND       PRES   REMARKS
COLUMBIA       CLEAR     59  54  82 CALM      30.22S
MCMINNVILLE    CLEAR     57  55  94 CALM      30.27S
SHELBYVILLE    CLEAR     59  55  88 E5        30.26S
TULLAHOMA      CLEAR     55  52  88 CALM      30.27S
WINCHESTER     CLEAR     61  54  77 CALM      30.27S
$$


...KEY TO REMARKS...
VSB - VISIBILITY IN MILES
WCI - WIND CHILL INDEX
HX  - HEAT INDEX




USA.gov is the U.S. government's official web portal to all federal, state and local government web resources and services.